Regional Weather Roundup
Issued by NWS

Home | Current Version | Previous Version | Graphics & Text | Print | Product List | Glossary On
Versions: 1 2 3 4 5 6 7 8 9 10 11 12 13 14 15 16 17 18 19 20 21 22 23 24 25 26 27 28 29 30 31 32 33 34 35 36 37 38 39 40 41 42 43 44 45 46 47 48 49 50
000
ASUS44 KMEG 261000
RWRTN
TENNESSEE HOURLY STATE WEATHER ROUNDUP
NATIONAL WEATHER SERVICE MEMPHIS TN
500 AM CDT SAT JUL 26 2014

TNZ002-004-019-021-049-052-054-088>092-261100-
WEST TENNESSEE

CITY           SKY/WX    TMP DP  RH WIND       PRES   REMARKS
MEMPHIS INTL   CLEAR     72  66  81 S6        29.99R
NWS MEMPHIS      N/A     69 N/A N/A MISG        N/A
JACKSON        CLEAR     62  60  93 S3        30.00S FOG
DYERSBURG      CLEAR     66  57  72 S3        29.99F
UNION CITY     CLEAR     63  63 100 S5        29.97S
PARIS          CLEAR     63  61  94 CALM      29.99F
LEXINGTON        N/A     63  63 100 CALM      30.01R VSB 1
SAVANNAH       CLEAR     63  63 100 S3        30.02S
$$

TNZ008-025-027-028-033-062-065-066-261100-
NORTH MIDDLE TENNESSEE

CITY           SKY/WX    TMP DP  RH WIND       PRES   REMARKS
NASHVILLE      CLEAR     66  64  93 CALM      30.02S
CLARKSVILLE    CLEAR     63  61  93 CALM      30.00S FOG
COOKEVILLE     CLEAR     61  59  94 CALM      30.04S
CROSSVILLE     CLEAR     60  57  89 CALM      30.08S
$$

TNZ061-075-076-078-094-096-097-261100-
SOUTH MIDDLE TENNESSEE

CITY           SKY/WX    TMP DP  RH WIND       PRES   REMARKS
FAYETTEVILLE   CLEAR     63  63 100 CALM      30.04S
WINCHESTER     CLEAR     63  61  94 CALM      30.05S
COLUMBIA       CLEAR     63  63 100 CALM      30.01S
SHELBYVILLE    CLEAR     64  63  94 E3        30.04S
$$

TNZ017-018-042-046-047-261100-
NORTHEAST TENNESSEE

CITY           SKY/WX    TMP DP  RH WIND       PRES   REMARKS
TRI CITIES     MOCLDY    62  60  93 CALM      30.08R
ELIZABETHTON   CLOUDY    63  61  94 CALM      30.08R
$$

TNZ012-013-036-069-073-074-261100-
CENTRAL EAST TENNESSEE

CITY           SKY/WX    TMP DP  RH WIND       PRES   REMARKS
KNOXVILLE      PTCLDY    63  61  93 E3        30.04R
OAK RIDGE      CLEAR     64  62  93 CALM      30.06R
GATLINBURG     SUNNY     63  61  94 CALM      30.05R
$$

TNZ083-085-099-261100-
SOUTHEAST TENNESSEE

CITY           SKY/WX    TMP DP  RH WIND       PRES   REMARKS
CHATTANOOGA    PTCLDY    66  63  90 CALM      30.05R
$$

SKY/WX REPORTED AS FAIR MEANS FEW OR NO CLOUDS BELOW
12 THOUSAND FEET.



USA.gov is the U.S. government's official web portal to all federal, state and local government web resources and services.